Stations météo

réclame
Mon MeteoGroup
Greifswald, Allemagne (10184): Température de l'air & dewpoint: 09.12.2018 12:00:00 - 15.12.2018 12:00:00 (CET)Greifswald, Allemagne (10184): Température de l'air 5cm & Température de l'air -5cm: 09.12.2018 12:00:00 - 15.12.2018 12:00:00 (CET)Greifswald, Allemagne (10184): Température de l'air -20cm & Température de l'air -100cm: 09.12.2018 12:00:00 - 15.12.2018 12:00:00 (CET)Greifswald, Allemagne (10184): Vitesse du vent & gusts: 09.12.2018 12:00:00 - 15.12.2018 12:00:00 (CET)Greifswald, Allemagne (10184): Direction du vent: 09.12.2018 12:00:00 - 15.12.2018 12:00:00 (CET)Greifswald, Allemagne (10184): reduced air pressure: 09.12.2018 12:00:00 - 15.12.2018 12:00:00 (CET)Greifswald, Allemagne (10184): visibility: 09.12.2018 12:00:00 - 15.12.2018 12:00:00 (CET)Greifswald, Allemagne (10184): Ensoleillement: 09.12.2018 12:00:00 - 15.12.2018 12:00:00 (CET)Greifswald, Allemagne (10184): Quantités de précipitations: 09.12.2018 12:00:00 - 15.12.2018 12:00:00 (CET)
Date & Time tt [°C] td [°C] tt 5cm [°C] tt -5cm [°C] tt -20cm [°C] tt -100cm [°C] ff [km/h] ff [knt] fx [km/h] fx [knt] dd ppp [hPa] vv [km] sd [min] rr [mm]
15.12.2018 12:00:00 0,7 -2,3 0,8 1,1 1,7 6,8 5 3 7 4 NW 1030,6 19 0 0,0
15.12.2018 11:00:00 0,3 -2,8 0,2 0,6 1,7 6,8 3 2 4 2 NW 1031,2 18 0 0,0
15.12.2018 10:00:00 -0,1 -2,9 -0,3 0,5 1,7 6,9 2 1 5 3 W 1031,4 25 0 0,0
15.12.2018 09:00:00 -0,6 -2,5 -0,8 0,5 1,7 6,9 3 1 5 3 NW 1031,2 25 0 0,0
15.12.2018 08:00:00 -0,9 -2,3 -1,3 0,5 1,8 6,9 3 2 4 2 N 1031,0 14 0 0,0
15.12.2018 07:00:00 -0,4 -2,8 -1,0 0,5 1,8 6,9 2 1 3 2 WNW 1031,0 19 0 0,0
15.12.2018 06:00:00 -0,5 -2,5 -1,0 0,4 1,8 6,9 2 1 5 3 SSE 1030,8 18 0 0,0
15.12.2018 05:00:00 -0,3 -3,2 -1,0 0,4 1,8 6,9 5 3 7 4 SE 1030,7 18 0 0,0
15.12.2018 04:00:00 -0,2 -3,2 -0,7 0,4 1,8 6,9 5 3 10 5 SE 1030,7 16 0 0,0
15.12.2018 03:00:00 -0,2 -3,2 -0,9 0,4 1,9 6,9 8 4 11 6 E 1030,9 19 0 0,0
15.12.2018 02:00:00 -0,1 -3,4 -0,7 0,4 1,9 6,9 3 2 12 6 E 1030,6 18 0 0,0
15.12.2018 01:00:00 -0,2 -2,2 -0,7 0,5 2,0 6,9 8 5 11 6 ESE 1030,7 12 0 0,0
15.12.2018 00:00:00 0,0 -2,5 -0,7 0,6 2,0 6,9 5 3 11 6 ESE 1030,6 13 0 0,0
14.12.2018 23:00:00 -0,2 -2,4 -0,6 0,6 2,1 6,9 5 3 8 4 E 1030,5 11 0 0,0
14.12.2018 22:00:00 -0,1 -1,9 -0,7 0,6 2,1 6,9 2 1 9 5 ESE 1030,4 11 0 0,0
14.12.2018 21:00:00 0,1 -2,1 -0,6 0,7 2,1 6,9 5 3 14 7 E 1030,3 12 0 0,0
14.12.2018 20:00:00 0,2 -2,6 -0,3 0,7 2,2 7,0 8 4 15 8 SSE 1029,9 12 0 0,0
14.12.2018 19:00:00 0,2 -2,6 -0,3 0,8 2,3 7,0 9 5 14 8 SSE 1029,8 12 0 0,0
14.12.2018 18:00:00 0,3 -2,3 -0,3 0,9 2,3 7,0 10 5 16 8 E 1029,7 11 0 0,0
14.12.2018 17:00:00 0,2 -2,4 -0,3 1,0 2,4 7,0 9 5 14 8 E 1029,4 12 0 0,0
14.12.2018 16:00:00 0,2 -2,3 -0,5 1,1 2,4 7,0 7 4 14 7 ESE 1029,0 13 0 0,0
14.12.2018 15:00:00 0,2 -2,3 -0,3 1,3 2,4 7,0 8 4 16 9 SE 1028,7 12 0 0,0
14.12.2018 14:00:00 0,2 -2,1 -0,3 1,3 2,4 7,0 10 6 17 9 ESE 1028,5 13 0 0,0
14.12.2018 13:00:00 0,1 -2,0 -0,4 1,2 2,4 7,0 11 6 21 11 ESE 1028,3 8 0 0,0
14.12.2018 12:00:00 0,6 -2,0 0,0 1,2 2,4 7,0 14 8 23 13 ESE 1028,1 12 0 0,0
14.12.2018 11:00:00 1,0 -3,3 -0,1 1,2 2,5 7,0 15 8 31 17 E 1027,8 35 0 0,0
14.12.2018 10:00:00 1,0 -2,1 -0,1 1,2 2,5 7,0 15 8 22 12 E 1027,7 25 0 0,0
14.12.2018 09:00:00 0,8 -1,2 0,0 1,2 2,5 7,0 8 4 13 7 ESE 1027,1 11 0 0,0
14.12.2018 08:00:00 0,7 -1,0 0,0 1,2 2,5 7,0 7 4 17 9 ESE 1026,6 15 0 0,0
14.12.2018 07:00:00 0,5 -0,3 0,0 1,3 2,6 7,0 7 4 12 7 ENE 1026,5 8 0 0,0
14.12.2018 06:00:00 0,5 -0,2 0,0 1,3 2,6 7,0 4 2 9 5 E 1026,2 13 0 0,0
14.12.2018 05:00:00 0,3 -0,2 -0,1 1,3 2,6 7,0 4 2 9 5 N 1026,1 8 0 0,0
14.12.2018 04:00:00 0,5 -0,1 -0,1 1,3 2,7 7,0 6 3 8 5 S 1026,0 10 0 0,0
14.12.2018 03:00:00 0,4 0,3 -0,1 1,2 2,7 7,0 2 1 4 2 WSW 1026,1 6 0 0,0
14.12.2018 02:00:00 0,4 0,0 -0,1 1,3 2,8 7,1 2 1 8 4 N 1026,0 8 0 0,0
14.12.2018 01:00:00 0,4 -0,1 -0,1 1,2 2,8 7,1 3 1 6 4 NNE 1025,9 8 0 0,0
14.12.2018 00:00:00 0,5 0,1 -0,1 1,2 2,9 7,1 6 3 8 4 NNW 1025,9 5 0 0,0
13.12.2018 23:00:00 0,4 0,0 -0,1 1,4 3,0 7,1 3 2 9 5 N 1026,0 8 0 0,0
13.12.2018 22:00:00 0,5 0,0 -0,3 1,4 3,2 7,1 4 2 11 6 SE 1025,6 9 0 0,0
13.12.2018 21:00:00 0,7 0,2 0,0 1,7 3,3 7,1 0 0 18 10 N 1025,5 10 0 0,5
13.12.2018 20:00:00 1,2 0,6 1,0 2,2 3,4 7,1 5 3 18 10 SSW 1025,6 8 0 0,0
13.12.2018 19:00:00 1,2 0,8 0,9 2,3 3,4 7,1 2 1 5 3 SSE 1025,3 10 0 0,0
13.12.2018 18:00:00 1,4 1,0 1,2 2,5 3,5 7,1 5 3 13 7 E 1025,4 10 0 0,8
13.12.2018 17:00:00 1,9 1,0 1,7 2,8 3,5 7,1 8 4 14 8 N 1025,5 8 0 0,0
13.12.2018 16:00:00 2,4 1,0 2,0 3,1 3,5 7,1 5 3 11 6 N 1025,5 26 0 0,0
13.12.2018 15:00:00 2,2 0,7 1,9 3,3 3,4 7,1 2 1 16 9 WSW 1025,7 36 0 0,0
13.12.2018 14:00:00 2,6 0,7 2,5 3,6 3,2 7,1 16 8 27 15 ENE 1025,7 9 0 0,0
13.12.2018 13:00:00 3,8 0,5 3,6 3,3 3,1 7,1 6 3 16 9 E 1025,9 40 0 0,0
13.12.2018 12:00:00 3,4 0,9 3,0 2,9 2,9 7,1 9 5 20 11 E 1026,1 40 0 0,0
13.12.2018 11:00:00 3,5 0,8 3,3 2,4 2,8 7,1 13 7 22 12 E 1026,3 34 10 0,0
13.12.2018 10:00:00 2,6 1,5 2,0 1,4 2,8 7,1 12 6 27 15 E 1026,4 30 0 0,0
13.12.2018 09:00:00 0,7 0,4 -0,4 0,8 2,9 7,1 5 3 10 6 E 1026,3 8 0 0,0
13.12.2018 08:00:00 2,4 1,2 1,1 1,2 2,9 7,1 8 4 26 14 E 1026,4 22 0 0,0
13.12.2018 07:00:00 2,6 1,9 1,8 1,1 3,0 7,1 11 6 17 9 ENE 1026,0 30 0 0,1
13.12.2018 06:00:00 1,8 1,1 1,1 1,0 3,2 7,1 9 5 16 8 N 1026,5 25 0 0,0
13.12.2018 05:00:00 1,1 0,3 -0,1 1,1 3,4 7,1 10 6 18 10 NNW 1026,6 40 0 0,0
13.12.2018 04:00:00 0,4 -0,8 -2,4 1,2 3,6 7,1 8 4 13 7 NNW 1027,0 50 0 0,0
13.12.2018 03:00:00 1,5 -0,1 -0,2 1,6 3,8 7,2 9 5 24 13 N 1027,4 50 0 0,0
13.12.2018 02:00:00 1,9 0,2 0,5 2,4 4,0 7,2 12 7 25 13 NNE 1027,5 50 0 0,0
13.12.2018 01:00:00 2,8 1,0 2,2 3,1 4,0 7,2 14 7 33 18 NNE 1027,9 35 0 0,0
13.12.2018 00:00:00 3,7 0,9 3,0 3,3 4,0 7,2 16 9 30 16 NE 1027,9 40 0 0,0
12.12.2018 23:00:00 3,9 1,1 3,3 3,3 4,1 7,2 18 10 29 16 NE 1028,0 65 0 0,0
12.12.2018 22:00:00 3,8 1,9 3,2 3,4 4,1 7,2 17 9 33 18 NE 1028,0 50 0 0,0
12.12.2018 21:00:00 3,7 2,5 3,1 3,4 4,1 7,2 18 10 34 18 NE 1027,8 45 0 0,5
12.12.2018 20:00:00 3,7 3,0 3,3 3,3 4,1 7,2 22 12 34 18 ENE 1027,8 1,5 0 1,3
12.12.2018 19:00:00 4,0 2,3 3,1 3,2 4,2 7,2 18 10 32 18 ENE 1027,7 40 0 0,3
12.12.2018 18:00:00 3,5 2,2 2,7 3,2 4,3 7,2 18 10 34 19 NE 1027,5 18 0 0,0
12.12.2018 17:00:00 2,4 1,7 0,4 3,4 4,4 7,2 9 5 16 8 NE 1027,2 30 0 0,0
12.12.2018 16:00:00 3,0 2,2 2,4 4,0 4,5 7,2 9 5 14 8 NE 1026,9 12 0 0,0
12.12.2018 15:00:00 4,0 2,7 3,2 4,7 4,4 7,2 10 5 20 11 NNE 1026,6 35 0 0,0
12.12.2018 14:00:00 4,6 2,4 4,5 5,0 4,2 7,2 12 7 20 11 NE 1026,3 40 5 0,0
12.12.2018 13:00:00 5,1 2,1 6,3 4,4 4,1 7,2 16 9 35 19 E 1026,1 35 17 0,0
12.12.2018 12:00:00 4,8 2,6 4,4 4,2 4,0 7,2 20 11 41 22 NE 1025,8 40 0 0,0
12.12.2018 11:00:00 5,0 2,6 4,6 3,8 3,9 7,2 23 12 36 19 NE 1025,7 26 0 0,0
12.12.2018 10:00:00 4,8 2,3 4,3 3,4 3,9 7,2 18 10 33 18 NNE 1025,4 40 0 0,0
12.12.2018 09:00:00 4,3 2,1 3,2 3,2 3,9 7,2 15 8 31 17 NNE 1025,0 30 0 0,0
12.12.2018 08:00:00 4,4 2,7 3,5 3,4 3,9 7,2 17 9 32 18 NE 1024,3 30 0 0,0
12.12.2018 07:00:00 4,2 3,0 3,4 3,3 3,8 7,2 17 9 31 17 NE 1024,0 30 0 0,2
12.12.2018 06:00:00 4,1 2,9 3,3 3,2 3,8 7,2 11 6 25 14 N 1023,4 35 0 0,4
12.12.2018 05:00:00 4,0 2,8 3,5 3,1 3,8 7,2 11 6 17 9 N 1023,0 40 0 0,0
12.12.2018 04:00:00 3,7 2,7 3,1 2,8 3,9 7,2 11 6 17 9 NNW 1022,5 45 0 0,1
12.12.2018 03:00:00 3,7 2,4 2,9 3,0 3,9 7,2 11 6 18 10 NNW 1022,3 40 0 0,0
12.12.2018 02:00:00 4,1 3,1 3,4 3,3 3,9 7,2 10 6 32 17 N 1021,4 35 0 0,9
12.12.2018 01:00:00 4,3 3,0 3,6 3,3 3,8 7,2 16 9 25 13 N 1021,0 12 0 0,3
12.12.2018 00:00:00 4,3 2,6 3,5 3,2 3,8 7,2 16 9 27 15 NNW 1020,6 35 0 0,3
11.12.2018 23:00:00 3,8 2,2 3,1 2,9 3,8 7,3 13 7 21 11 NW 1020,1 35 0 0,0
11.12.2018 22:00:00 4,0 2,0 2,8 2,7 3,9 7,3 15 8 24 13 N 1019,8 50 0 0,1
11.12.2018 21:00:00 3,6 1,4 2,6 2,7 4,0 7,3 9 5 21 11 NNW 1019,4 5 0 0,0
11.12.2018 20:00:00 3,7 1,6 2,6 2,7 4,1 7,3 16 9 28 15 N 1018,7 60 0 0,1
11.12.2018 19:00:00 3,6 0,8 2,7 2,7 4,2 7,3 16 9 31 17 NNW 1018,2 55 0 0,0
11.12.2018 18:00:00 4,0 1,1 3,2 3,4 4,3 7,3 20 11 33 18 N 1017,4 50 0 0,0
11.12.2018 17:00:00 4,3 2,2 3,4 3,7 4,3 7,3 16 9 29 16 NNW 1016,7 50 0 0,0
11.12.2018 16:00:00 4,4 2,4 4,0 3,8 4,2 7,3 17 9 29 16 NNW 1016,0 40 0 0,0
11.12.2018 15:00:00 4,4 2,1 4,1 3,9 4,2 7,3 16 9 29 16 NNW 1015,3 40 0 0,0
11.12.2018 14:00:00 4,5 1,9 4,1 3,9 4,1 7,3 16 8 35 19 NNW 1014,9 50 0 0,0
11.12.2018 13:00:00 4,7 1,9 4,4 3,8 4,0 7,3 17 9 25 14 NNW 1014,1 50 0 0,0
11.12.2018 12:00:00 4,4 1,9 4,1 3,7 4,0 7,3 15 8 29 16 NNW 1013,7 38 0 0,0
11.12.2018 11:00:00 4,2 2,1 4,0 3,3 3,9 7,3 17 9 30 16 N 1013,3 50 0 0,0
11.12.2018 10:00:00 3,6 0,9 3,3 2,8 4,0 7,3 11 6 22 12 NNW 1012,8 55 0 0,0
11.12.2018 09:00:00 3,3 -0,7 2,8 2,6 4,0 7,3 13 7 27 15 NNW 1012,2 58 0 0,0
11.12.2018 08:00:00 3,3 -0,8 2,6 2,8 4,1 7,3 19 11 39 21 N 1011,3 68 0 0,0
11.12.2018 07:00:00 3,6 -0,4 3,1 3,0 4,2 7,3 23 12 47 25 N 1010,3 50 0 0,0
11.12.2018 06:00:00 3,8 0,3 3,2 3,2 4,3 7,3 21 11 41 22 NNW 1009,4 55 0 0,0
11.12.2018 05:00:00 4,1 1,4 3,7 3,4 4,3 7,3 19 10 41 22 NNW 1008,4 50 0 0,0
11.12.2018 04:00:00 3,9 2,0 3,2 3,5 4,3 7,3 23 12 53 28 NNW 1007,6 40 0 1,2
11.12.2018 03:00:00 4,3 2,5 3,5 3,6 4,3 7,3 22 12 47 25 NW 1006,8 6 0 1,7
11.12.2018 02:00:00 4,3 2,2 3,4 3,6 4,3 7,3 26 14 51 28 WNW 1006,2 10 0 0,4
11.12.2018 01:00:00 5,6 1,0 4,9 3,5 4,3 7,3 29 16 48 26 WNW 1006,1 33 0 0,0
11.12.2018 00:00:00 5,4 1,2 4,4 3,4 4,3 7,3 23 12 36 20 W 1006,2 31 0 0,0
10.12.2018 23:00:00 5,1 1,4 4,5 3,3 4,3 7,3 20 11 36 20 W 1006,3 29 0 0,0
10.12.2018 22:00:00 5,0 1,3 4,3 3,2 4,3 7,3 22 12 34 18 W 1006,4 28 0 0,0
10.12.2018 21:00:00 4,7 1,3 3,8 3,0 4,4 7,3 18 10 29 16 W 1006,2 26 0 0,0
10.12.2018 20:00:00 4,6 1,5 3,8 3,0 4,6 7,3 17 9 27 15 W 1006,0 25 0 0,0
10.12.2018 19:00:00 3,7 2,0 2,5 3,0 4,7 7,3 12 6 23 12 WSW 1005,8 22 0 0,0
10.12.2018 18:00:00 4,0 1,4 2,6 3,4 4,9 7,2 14 8 32 17 W 1005,8 33 0 0,0
10.12.2018 17:00:00 4,3 1,7 2,9 4,1 5,0 7,2 22 12 39 21 W 1005,3 40 0 0,0
10.12.2018 16:00:00 5,0 1,8 3,6 4,5 5,0 7,2 20 11 48 26 W 1005,2 30 0 0,1
10.12.2018 15:00:00 5,4 1,3 4,6 5,0 4,8 7,2 26 14 45 24 W 1005,2 30 3 0,0
10.12.2018 14:00:00 5,9 2,0 5,4 4,7 4,8 7,2 30 16 48 26 W 1005,0 10 2 0,9
10.12.2018 13:00:00 5,2 1,4 3,9 4,4 4,7 7,2 30 16 51 28 W 1005,4 22 0 0,0
10.12.2018 12:00:00 6,0 0,1 5,6 4,3 4,7 7,2 26 14 50 27 WNW 1005,4 30 0 0,0
10.12.2018 11:00:00 5,9 0,5 5,4 4,0 4,6 7,2 29 16 53 28 W 1005,1 40 0 0,0
10.12.2018 10:00:00 5,9 -0,1 5,3 3,8 4,6 7,2 26 14 53 28 WNW 1004,7 39 0 0,0
10.12.2018 09:00:00 5,6 1,0 5,0 3,7 4,6 7,2 25 14 45 24 WNW 1004,1 27 0 0,0
10.12.2018 08:00:00 5,7 0,7 5,0 3,5 4,7 7,2 24 13 45 25 W 1003,6 24 0 0,0
10.12.2018 07:00:00 5,7 0,6 4,9 3,5 4,7 7,2 30 16 46 25 WNW 1003,0 25 0 0,0
10.12.2018 06:00:00 5,4 1,0 4,1 3,4 4,8 7,2 26 14 43 23 W 1002,2 28 0 0,0
10.12.2018 05:00:00 5,4 0,9 4,7 3,3 4,9 7,2 24 13 38 21 W 1001,7 30 0 0,0
10.12.2018 04:00:00 4,8 0,7 3,7 3,3 5,1 7,2 21 11 37 20 WNW 1001,2 33 0 0,0
10.12.2018 03:00:00 5,2 1,3 4,0 3,7 5,2 7,2 23 13 41 22 W 1000,5 24 0 0,0
10.12.2018 02:00:00 5,5 2,5 4,8 3,6 5,4 7,2 18 10 29 15 W 999,8 33 0 0,0
10.12.2018 01:00:00 4,0 1,3 2,7 3,5 5,6 7,2 14 8 29 15 W 999,2 37 0 0,0
10.12.2018 00:00:00 4,3 1,0 2,8 4,2 5,8 7,2 18 10 36 20 WNW 998,6 44 0 0,0
09.12.2018 23:00:00 4,7 1,7 3,1 4,8 6,0 7,2 24 13 48 26 WNW 997,1 40 0 0,0
09.12.2018 22:00:00 5,6 4,0 4,8 5,5 6,0 7,2 25 13 55 30 NW 995,4 25 0 0,6
09.12.2018 21:00:00 6,3 4,3 5,4 5,6 6,1 7,2 25 13 42 23 WNW 993,6 11 0 0,1
09.12.2018 20:00:00 6,0 4,2 5,1 5,7 6,1 7,2 23 12 46 25 W 992,3 30 0 0,6
09.12.2018 19:00:00 6,9 4,6 6,1 5,8 6,2 7,2 20 11 34 18 W 991,3 30 0 0,0
09.12.2018 18:00:00 6,7 5,2 5,8 6,0 6,2 7,1 21 12 36 19 W 990,6 33 0 0,3
09.12.2018 17:00:00 7,1 4,7 6,0 6,1 6,3 7,1 20 11 34 18 WSW 990,0 18 0 0,2
09.12.2018 16:00:00 7,3 4,5 6,6 6,2 6,3 7,1 15 8 29 16 WSW 989,5 38 0 0,0
09.12.2018 15:00:00 7,6 5,2 7,0 6,6 6,3 7,1 16 9 32 17 W 989,2 40 1 0,0
09.12.2018 14:00:00 7,7 5,2 7,3 6,8 6,2 7,1 18 10 31 17 W 988,4 35 0 0,0
09.12.2018 13:00:00 7,7 4,9 7,6 6,9 6,1 7,1 20 11 35 19 WSW 987,9 6 0 0,0
09.12.2018 12:00:00 7,4 5,0 7,4 6,5 6,0 7,1 18 10 32 18 WSW 987,7 30 0 0,0

tt = Température de l'air
td = dewpoint
tt 5cm = Température de l'air 5cm
tt -5cm = Température de l'air -5cm
tt -20cm = Température de l'air -20cm
tt -100cm = Température de l'air -100cm
ff = Vitesse du vent
fx = gusts
dd = Direction du vent
ppp = reduced air pressure
vv = visibility
sd = Ensoleillement
rr = Quantités de précipitations

stations d'obs. à proximité